VCP29S ESGG-LKPR

Flight info

Callsign VCP29S
Flight time 1h 13m
Altitude 33000
Route TOPLA L996 ERNOV DCT SALLO DCT USEDU DCT PADKU DCT GERGA DCT OBANI M725 HDO DCT GOLOP
Aircraft B738/M-SDE2E3FGHIRWXY/LB1

Departure

Time 2026-05-06 17:37
Airport Göteborg Landvetter Airport (ESGG)

Arrival

Time 2026-05-06 18:51
Airport Václav Havel Airport Prague (LKPR)
Time Latitude Longitude Altitude Speed Heading
2026-05-06 17:12 57.66849 12.29381 512 ft 0 kts 115°
2026-05-06 17:28 57.66850 12.29378 512 ft 1 kts 115°
2026-05-06 17:29 57.66856 12.29353 511 ft 2 kts 115°
2026-05-06 17:29 57.66862 12.29328 511 ft 2 kts 115°
2026-05-06 17:29 57.66867 12.29312 510 ft 2 kts 112°
2026-05-06 17:29 57.66869 12.29285 510 ft 2 kts 82°
2026-05-06 17:30 57.66864 12.29258 510 ft 2 kts 58°
2026-05-06 17:30 57.66855 12.29237 509 ft 2 kts 34°
2026-05-06 17:30 57.66848 12.29230 509 ft 1 kts 21°
2026-05-06 17:30 57.66844 12.29227 509 ft 0 kts 24°
2026-05-06 17:34 57.66845 12.29227 509 ft 0 kts 24°
2026-05-06 17:34 57.66867 12.29246 509 ft 6 kts 24°
2026-05-06 17:34 57.66933 12.29302 509 ft 12 kts 24°
2026-05-06 17:34 57.67000 12.29257 508 ft 12 kts 300°
2026-05-06 17:35 57.67065 12.29192 508 ft 11 kts 22°
2026-05-06 17:35 57.67141 12.29269 508 ft 15 kts 28°
2026-05-06 17:35 57.67253 12.29366 508 ft 19 kts 24°
2026-05-06 17:36 57.67406 12.29464 510 ft 10 kts 332°
2026-05-06 17:36 57.67454 12.29315 508 ft 17 kts 289°
2026-05-06 17:36 57.67464 12.29081 508 ft 17 kts 246°
2026-05-06 17:36 57.67373 12.28968 508 ft 18 kts 205°
2026-05-06 17:37 57.67089 12.28702 506 ft 81 kts 206°
2026-05-06 17:37 57.66380 12.28052 509 ft 143 kts 205°
2026-05-06 17:37 57.65343 12.27195 784 ft 170 kts 205°
2026-05-06 17:37 57.64253 12.26350 1439 ft 177 kts 205°
2026-05-06 17:38 57.63166 12.25334 2115 ft 178 kts 212°
2026-05-06 17:38 57.62094 12.24175 2587 ft 185 kts 211°
2026-05-06 17:38 57.60899 12.23133 2949 ft 200 kts 194°
2026-05-06 17:38 57.59464 12.22905 3401 ft 212 kts 181°
2026-05-06 17:39 57.57943 12.22874 3793 ft 227 kts 182°
2026-05-06 17:39 57.56320 12.22724 4208 ft 241 kts 183°
2026-05-06 17:39 57.54601 12.22767 4657 ft 255 kts 175°
2026-05-06 17:39 57.52547 12.23280 5342 ft 262 kts 171°
2026-05-06 17:40 57.50738 12.23837 6034 ft 265 kts 170°
2026-05-06 17:40 57.48929 12.24378 6744 ft 267 kts 170°
2026-05-06 17:40 57.47102 12.24895 7441 ft 271 kts 171°
2026-05-06 17:40 57.45238 12.25407 8171 ft 273 kts 171°
2026-05-06 17:41 57.43353 12.25918 8887 ft 277 kts 172°
2026-05-06 17:41 57.41450 12.26431 9620 ft 280 kts 172°
2026-05-06 17:41 57.39523 12.26949 10288 ft 285 kts 172°
2026-05-06 17:41 57.37513 12.27489 10658 ft 302 kts 172°
2026-05-06 17:42 57.35392 12.28057 11010 ft 318 kts 172°
2026-05-06 17:42 57.33156 12.28655 11354 ft 334 kts 172°
2026-05-06 17:42 57.30820 12.29280 11694 ft 350 kts 173°
2026-05-06 17:42 57.28357 12.29938 12000 ft 366 kts 173°
2026-05-06 17:43 57.25795 12.30621 12461 ft 378 kts 173°
2026-05-06 17:43 57.23174 12.31321 13088 ft 384 kts 173°
2026-05-06 17:43 57.20546 12.32023 13717 ft 390 kts 173°
2026-05-06 17:43 57.17851 12.32742 14437 ft 394 kts 173°
2026-05-06 17:44 57.15152 12.33462 15269 ft 396 kts 174°
2026-05-06 17:44 57.12427 12.34182 16002 ft 399 kts 174°
2026-05-06 17:44 57.09675 12.34885 16714 ft 403 kts 174°
2026-05-06 17:44 57.06921 12.35569 17415 ft 406 kts 175°
2026-05-06 17:45 57.04114 12.36258 18066 ft 410 kts 175°
2026-05-06 17:45 57.01304 12.36946 18753 ft 413 kts 175°
2026-05-06 17:45 56.98431 12.37650 19466 ft 415 kts 176°
2026-05-06 17:45 56.95570 12.38352 20133 ft 418 kts 176°
2026-05-06 17:46 56.92727 12.39051 20791 ft 420 kts 176°
2026-05-06 17:46 56.89833 12.39762 21425 ft 423 kts 176°
2026-05-06 17:46 56.86917 12.40477 22040 ft 425 kts 176°
2026-05-06 17:46 56.83969 12.41200 22637 ft 428 kts 176°
2026-05-06 17:47 56.81014 12.41924 23222 ft 431 kts 176°
2026-05-06 17:47 56.78050 12.42649 23820 ft 433 kts 176°
2026-05-06 17:47 56.75079 12.43376 24380 ft 437 kts 176°
2026-05-06 17:47 56.72078 12.44107 25002 ft 438 kts 176°
2026-05-06 17:48 56.69049 12.44844 25534 ft 442 kts 176°
2026-05-06 17:48 56.66004 12.45585 26090 ft 445 kts 176°
2026-05-06 17:48 56.62983 12.46319 26648 ft 446 kts 176°
2026-05-06 17:48 56.59895 12.47068 27179 ft 449 kts 176°
2026-05-06 17:49 56.56798 12.47819 27722 ft 450 kts 176°
2026-05-06 17:49 56.53721 12.48568 28603 ft 444 kts 176°
2026-05-06 17:49 56.50717 12.49299 29366 ft 440 kts 176°
2026-05-06 17:49 56.47685 12.50034 29998 ft 438 kts 176°
2026-05-06 17:50 56.44669 12.50785 30615 ft 437 kts 175°
2026-05-06 17:50 56.41686 12.51742 31223 ft 436 kts 172°
2026-05-06 17:50 56.38749 12.52869 31754 ft 435 kts 171°
2026-05-06 17:50 56.35729 12.54121 32213 ft 436 kts 170°
2026-05-06 17:51 56.32773 12.55376 32642 ft 436 kts 170°
2026-05-06 17:51 56.29793 12.56644 33106 ft 435 kts 170°
2026-05-06 17:51 56.26881 12.57871 33546 ft 435 kts 170°
2026-05-06 17:51 56.23917 12.59105 33965 ft 434 kts 170°
2026-05-06 17:52 56.20945 12.60329 34343 ft 435 kts 170°
2026-05-06 17:52 56.18001 12.61531 34689 ft 434 kts 170°
2026-05-06 17:52 56.15082 12.62715 35006 ft 434 kts 170°
2026-05-06 17:52 56.12133 12.63904 35267 ft 434 kts 170°
2026-05-06 17:53 56.09198 12.65083 35486 ft 434 kts 171°
2026-05-06 17:53 56.06260 12.66258 35677 ft 435 kts 171°
2026-05-06 17:53 56.03305 12.67438 35884 ft 435 kts 171°
2026-05-06 17:53 56.00348 12.68616 36071 ft 435 kts 171°
2026-05-06 17:54 55.97374 12.69800 36239 ft 436 kts 171°
2026-05-06 17:54 55.94429 12.70970 36394 ft 437 kts 171°
2026-05-06 17:54 55.91481 12.72140 36554 ft 437 kts 171°
2026-05-06 17:54 55.88504 12.73320 36727 ft 438 kts 171°
2026-05-06 17:55 55.85566 12.74483 36869 ft 439 kts 171°
2026-05-06 17:55 55.82554 12.75672 36936 ft 441 kts 171°
2026-05-06 17:55 55.76595 12.78019 36942 ft 439 kts 171°
2026-05-06 17:56 55.70660 12.80350 36949 ft 439 kts 171°
2026-05-06 17:56 55.64698 12.82686 36949 ft 438 kts 171°
2026-05-06 17:57 55.58756 12.85007 36951 ft 437 kts 171°
2026-05-06 17:57 55.52855 12.87303 36947 ft 437 kts 171°
2026-05-06 17:58 55.46926 12.89602 36943 ft 438 kts 171°
2026-05-06 17:58 55.40984 12.91901 36942 ft 438 kts 171°
2026-05-06 17:59 55.35067 12.94150 36946 ft 438 kts 172°
2026-05-06 17:59 55.29084 12.96284 36941 ft 438 kts 172°
2026-05-06 18:00 55.23160 12.98362 36935 ft 438 kts 172°
2026-05-06 18:00 55.17199 13.00461 36937 ft 437 kts 172°
2026-05-06 18:01 55.11213 13.02574 36940 ft 437 kts 172°
2026-05-06 18:01 55.05292 13.04667 36941 ft 438 kts 172°
2026-05-06 18:02 54.99303 13.06781 36945 ft 438 kts 172°
2026-05-06 18:02 54.93326 13.08885 36939 ft 438 kts 172°
2026-05-06 18:03 54.87361 13.10981 36940 ft 438 kts 172°
2026-05-06 18:03 54.81393 13.13069 36943 ft 438 kts 172°
2026-05-06 18:04 54.75438 13.15145 36924 ft 437 kts 172°
2026-05-06 18:04 54.69472 13.17221 36934 ft 437 kts 172°
2026-05-06 18:05 54.63496 13.19293 36930 ft 437 kts 172°
2026-05-06 18:05 54.57590 13.21336 36925 ft 437 kts 172°
2026-05-06 18:06 54.51612 13.23397 36928 ft 437 kts 172°
2026-05-06 18:06 54.45683 13.25434 36915 ft 437 kts 172°
2026-05-06 18:07 54.39698 13.27486 36913 ft 437 kts 172°
2026-05-06 18:07 54.33754 13.29518 36890 ft 438 kts 172°
2026-05-06 18:08 54.27782 13.31552 36899 ft 437 kts 172°
2026-05-06 18:08 54.21838 13.33571 36895 ft 436 kts 172°
2026-05-06 18:09 54.15874 13.35591 36891 ft 437 kts 172°
2026-05-06 18:09 54.09934 13.37597 36894 ft 437 kts 172°
2026-05-06 18:10 54.03975 13.39604 36895 ft 438 kts 172°
2026-05-06 18:10 53.98027 13.41600 36888 ft 438 kts 172°
2026-05-06 18:11 53.93063 13.43263 36882 ft 437 kts 172°
2026-05-06 18:11 53.86089 13.45588 36883 ft 437 kts 172°
2026-05-06 18:12 53.80155 13.47563 36884 ft 436 kts 172°
2026-05-06 18:12 53.74255 13.49521 36884 ft 435 kts 172°
2026-05-06 18:13 53.68314 13.51487 36877 ft 435 kts 172°
2026-05-06 18:13 53.62385 13.53442 36869 ft 435 kts 172°
2026-05-06 18:14 53.56480 13.55384 36853 ft 434 kts 172°
2026-05-06 18:14 53.50544 13.57332 36853 ft 435 kts 172°
2026-05-06 18:15 53.44555 13.59291 36848 ft 435 kts 172°
2026-05-06 18:15 53.38620 13.61230 36842 ft 435 kts 172°
2026-05-06 18:16 53.32712 13.63152 36847 ft 434 kts 172°
2026-05-06 18:16 53.26787 13.65072 36843 ft 434 kts 173°
2026-05-06 18:17 53.20827 13.66999 36846 ft 433 kts 173°
2026-05-06 18:17 53.14957 13.68893 36835 ft 432 kts 173°
2026-05-06 18:18 53.09046 13.70793 36824 ft 431 kts 173°
2026-05-06 18:18 53.03182 13.72672 36825 ft 432 kts 173°
2026-05-06 18:19 52.97291 13.74556 36825 ft 431 kts 173°
2026-05-06 18:19 52.91425 13.76427 36831 ft 431 kts 173°
2026-05-06 18:20 52.85555 13.78293 36823 ft 431 kts 173°
2026-05-06 18:20 52.79686 13.80153 36827 ft 430 kts 173°
2026-05-06 18:21 52.73797 13.82015 36834 ft 431 kts 173°
2026-05-06 18:21 52.67944 13.83862 36828 ft 431 kts 173°
2026-05-06 18:22 52.62037 13.85718 36825 ft 430 kts 173°
2026-05-06 18:22 52.57140 13.87255 36827 ft 430 kts 174°
2026-05-06 18:23 52.50277 13.89401 36825 ft 430 kts 174°
2026-05-06 18:23 52.44408 13.91231 36816 ft 429 kts 174°
2026-05-06 18:24 52.39538 13.92746 36827 ft 429 kts 173°
2026-05-06 18:24 52.32695 13.94868 36814 ft 432 kts 174°
2026-05-06 18:25 52.26756 13.96703 36798 ft 432 kts 173°
2026-05-06 18:25 52.20879 13.98521 36795 ft 431 kts 174°
2026-05-06 18:26 52.15017 14.00326 36784 ft 430 kts 173°
2026-05-06 18:26 52.10108 14.01833 36794 ft 429 kts 174°
2026-05-06 18:27 52.03276 14.03925 36789 ft 430 kts 174°
2026-05-06 18:27 51.97423 14.05709 36783 ft 430 kts 174°
2026-05-06 18:28 51.91532 14.07502 36779 ft 429 kts 174°
2026-05-06 18:28 51.86639 14.08989 36778 ft 429 kts 174°
2026-05-06 18:29 51.79774 14.11066 36776 ft 429 kts 174°
2026-05-06 18:29 51.73933 14.12828 36772 ft 430 kts 174°
2026-05-06 18:30 51.68068 14.14596 36766 ft 430 kts 174°
2026-05-06 18:30 51.65102 14.15487 36537 ft 431 kts 174°
2026-05-06 18:30 51.62177 14.16366 36306 ft 428 kts 174°
2026-05-06 18:31 51.59298 14.17232 36104 ft 425 kts 174°
2026-05-06 18:31 51.56380 14.18107 35934 ft 426 kts 174°
2026-05-06 18:31 51.53461 14.18979 35685 ft 427 kts 174°
2026-05-06 18:31 51.50546 14.19848 35150 ft 427 kts 174°
2026-05-06 18:32 51.47650 14.20711 34487 ft 430 kts 174°
2026-05-06 18:32 51.44698 14.21588 33677 ft 433 kts 174°
2026-05-06 18:32 51.41752 14.22461 32867 ft 436 kts 174°
2026-05-06 18:32 51.39768 14.23049 32321 ft 437 kts 173°
2026-05-06 18:33 51.36794 14.23931 31492 ft 439 kts 173°
2026-05-06 18:33 51.33800 14.24818 30618 ft 440 kts 173°
2026-05-06 18:33 51.29794 14.26002 29337 ft 442 kts 173°
2026-05-06 18:33 51.26818 14.26880 28389 ft 442 kts 173°
2026-05-06 18:34 51.23777 14.27776 27409 ft 443 kts 173°
2026-05-06 18:34 51.20759 14.28664 26401 ft 445 kts 172°
2026-05-06 18:34 51.18768 14.29249 25718 ft 446 kts 172°
2026-05-06 18:34 51.14673 14.30450 24279 ft 449 kts 172°
2026-05-06 18:35 51.11641 14.31339 23338 ft 448 kts 172°
2026-05-06 18:35 51.08606 14.32230 22677 ft 442 kts 172°
2026-05-06 18:35 51.06598 14.32819 22190 ft 439 kts 172°
2026-05-06 18:35 51.02649 14.33976 21199 ft 434 kts 172°
2026-05-06 18:36 51.00701 14.34544 20711 ft 431 kts 171°
2026-05-06 18:36 50.97769 14.35398 19960 ft 428 kts 171°
2026-05-06 18:36 50.94876 14.36240 19215 ft 425 kts 171°
2026-05-06 18:36 50.91036 14.37395 18757 ft 414 kts 170°
2026-05-06 18:37 50.89175 14.38033 18752 ft 416 kts 169°
2026-05-06 18:37 50.86344 14.39072 18747 ft 420 kts 168°
2026-05-06 18:37 50.83511 14.40151 18747 ft 420 kts 168°
2026-05-06 18:37 50.80655 14.41248 18747 ft 420 kts 168°
2026-05-06 18:38 50.77837 14.42329 18745 ft 419 kts 168°
2026-05-06 18:38 50.75040 14.43400 18459 ft 413 kts 168°
2026-05-06 18:38 50.71394 14.44785 16776 ft 408 kts 168°
2026-05-06 18:38 50.69570 14.45470 15938 ft 404 kts 168°
2026-05-06 18:39 50.66879 14.46473 14856 ft 400 kts 168°
2026-05-06 18:39 50.64182 14.47471 14112 ft 397 kts 168°
2026-05-06 18:39 50.61508 14.48239 13428 ft 389 kts 178°
2026-05-06 18:40 50.55854 14.45385 12507 ft 358 kts 218°
2026-05-06 18:40 50.54619 14.43761 12211 ft 348 kts 221°
2026-05-06 18:40 50.52906 14.41245 11669 ft 332 kts 224°
2026-05-06 18:40 50.50775 14.37956 10978 ft 313 kts 225°
2026-05-06 18:41 50.49753 14.36363 10677 ft 304 kts 225°
2026-05-06 18:41 50.47827 14.33361 10158 ft 286 kts 225°
2026-05-06 18:41 50.46892 14.31906 9841 ft 280 kts 225°
2026-05-06 18:41 50.45072 14.29073 9017 ft 277 kts 225°
2026-05-06 18:42 50.44179 14.27684 8823 ft 274 kts 225°
2026-05-06 18:42 50.42821 14.25574 8687 ft 277 kts 225°
2026-05-06 18:42 50.41443 14.23433 8413 ft 275 kts 225°
2026-05-06 18:42 50.40113 14.21376 8164 ft 269 kts 225°
2026-05-06 18:43 50.38793 14.19341 7856 ft 266 kts 225°
2026-05-06 18:43 50.37023 14.16627 7378 ft 265 kts 225°
2026-05-06 18:43 50.36153 14.15300 7142 ft 264 kts 225°
2026-05-06 18:43 50.34414 14.12655 6753 ft 260 kts 225°
2026-05-06 18:44 50.33551 14.11341 6731 ft 253 kts 225°
2026-05-06 18:44 50.32307 14.09447 6747 ft 253 kts 225°
2026-05-06 18:44 50.31038 14.07513 6610 ft 257 kts 225°
2026-05-06 18:44 50.29772 14.05581 6211 ft 253 kts 225°
2026-05-06 18:45 50.28525 14.03679 5850 ft 246 kts 225°
2026-05-06 18:45 50.27338 14.01870 5496 ft 238 kts 225°
2026-05-06 18:45 50.26154 14.00070 5115 ft 234 kts 224°
2026-05-06 18:45 50.24831 13.98699 4741 ft 234 kts 198°
2026-05-06 18:46 50.23217 13.98526 4367 ft 232 kts 165°
2026-05-06 18:46 50.21831 13.99680 4033 ft 229 kts 133°
2026-05-06 18:46 50.21081 14.01786 3955 ft 222 kts 103°
2026-05-06 18:46 50.20638 14.04021 3962 ft 211 kts 113°
2026-05-06 18:47 50.19868 14.05884 3950 ft 196 kts 126°
2026-05-06 18:47 50.19014 14.07532 3868 ft 197 kts 126°
2026-05-06 18:47 50.18189 14.09218 3587 ft 197 kts 124°
2026-05-06 18:47 50.17382 14.10926 3313 ft 191 kts 124°
2026-05-06 18:48 50.16620 14.12496 3108 ft 173 kts 124°
2026-05-06 18:48 50.15922 14.13941 2832 ft 163 kts 124°
2026-05-06 18:48 50.15269 14.15301 2623 ft 153 kts 124°
2026-05-06 18:48 50.14622 14.16642 2436 ft 152 kts 124°
2026-05-06 18:49 50.13986 14.17929 2225 ft 149 kts 126°
2026-05-06 18:49 50.13345 14.19184 2002 ft 147 kts 125°
2026-05-06 18:49 50.12731 14.20437 1814 ft 144 kts 126°
2026-05-06 18:49 50.12131 14.21659 1613 ft 141 kts 124°
2026-05-06 18:50 50.11581 14.22884 1463 ft 139 kts 124°
2026-05-06 18:50 50.10992 14.24117 1286 ft 145 kts 126°
2026-05-06 18:50 50.10385 14.25394 1181 ft 141 kts 125°
2026-05-06 18:50 50.09954 14.26292 1202 ft 63 kts 125°
2026-05-06 18:51 50.09875 14.26633 1206 ft 27 kts 78°
2026-05-06 18:51 50.09904 14.26880 1204 ft 23 kts 80°
2026-05-06 18:51 50.09913 14.26971 1203 ft 2 kts 82°
2026-05-06 18:51 50.09915 14.27002 1203 ft 1 kts 82°
2026-05-06 18:52 50.09916 14.27012 1203 ft 1 kts 83°
2026-05-06 18:52 50.09917 14.27026 1203 ft 1 kts 83°
2026-05-06 18:52 50.09918 14.27033 1203 ft 0 kts 83°
2026-05-06 18:54 50.09919 14.27042 1203 ft 3 kts 83°
2026-05-06 18:54 50.09929 14.27113 1202 ft 9 kts 50°
2026-05-06 18:54 50.09974 14.27106 1200 ft 10 kts 309°
2026-05-06 18:54 50.10017 14.26981 1201 ft 16 kts 297°
2026-05-06 18:55 50.10090 14.26819 1199 ft 19 kts 307°
2026-05-06 18:55 50.10173 14.26651 1198 ft 18 kts 307°
2026-05-06 18:55 50.10218 14.26562 1196 ft 4 kts 308°
2026-05-06 18:55 50.10233 14.26533 1195 ft 4 kts 308°
2026-05-06 18:56 50.10262 14.26476 1194 ft 10 kts 308°
2026-05-06 18:56 50.10318 14.26349 1189 ft 18 kts 307°
2026-05-06 18:56 50.10412 14.26159 1182 ft 24 kts 305°
2026-05-06 18:56 50.10487 14.26000 1179 ft 8 kts 314°
2026-05-06 18:57 50.10548 14.25988 1177 ft 10 kts 27°
2026-05-06 18:57 50.10581 14.26087 1175 ft 11 kts 110°
2026-05-06 18:57 50.10548 14.26190 1177 ft 9 kts 118°
2026-05-06 18:57 50.10520 14.26264 1180 ft 7 kts 122°
2026-05-06 18:58 50.10488 14.26341 1182 ft 7 kts 123°
2026-05-06 18:58 50.10469 14.26385 1184 ft 2 kts 124°
2026-05-06 18:58 50.10461 14.26403 1185 ft 1 kts 124°
2026-05-06 18:58 50.10456 14.26426 1186 ft 4 kts 87°
2026-05-06 18:59 50.10482 14.26475 1188 ft 0 kts 35°